• Join FlightAware (Why Join?)
  • Login
  • US Flag 
11:45PM EST


 

Airport Tracker/Info


-or-


 

Live Flight TrackerFlight Track Log ✈ N516QS ✈ 12-May-2013 ✈ KBQK - KAPF

Flight Track Log - Related Links

Times and Time Zones

All times are in EDT time to prevent confusion due to time zone crossing. See the N516QS flight status page for this flight to view local times or setup timezone preferences in your user account.

Time Position Orientation Groundspeed Altitude Reporting Facility
EDT Latitude Longitude Course Direction KTS MPH feet Rate Location/Type
05:58PM 31.2172 -81.5006 226° Southwest 362 417 2,600  Level Jacksonville Center
05:59PM 31.1461 -81.4847 169° South 265 305 4,300 3,300 Climbing Jacksonville Center
06:00PM 31.0686 -81.4714 172° South 271 312 9,300 3,900 Climbing Jacksonville Center
06:01PM 30.7743 -81.7242 226° Southwest  Level FlightAware Approximate
06:01PM 30.9939 -81.5064 202° Southwest 276 318 12,200  Level Jacksonville Center
06:02PM 30.9131 -81.5681 213° Southwest 305 351 16,400 3,600 Climbing Jacksonville Center
06:03PM 30.8303 -81.6344 215° Southwest 329 379 19,500 3,060 Climbing Jacksonville Center
06:04PM 30.7433 -81.7011 213° Southwest 360 414 22,600 1,740 Climbing Jacksonville Center
06:05PM 30.6519 -81.7744 215° Southwest 387 445 23,000 1,260 Climbing Jacksonville Center
06:06PM 30.5628 -81.8431 214° Southwest 398 458 25,200 2,400 Climbing Jacksonville Center
06:07PM 30.4672 -81.9117 212° Southwest 398 458 27,900 1,380 Climbing Jacksonville Center
06:08PM 30.3719 -81.9850 214° Southwest 405 466 28,000  Climbing Jacksonville Center
06:09PM 30.2783 -82.0578 214° Southwest 419 482 28,000  Level Jacksonville Center
06:10PM 30.1681 -82.1069 201° Southwest 424 488 28,000 240 Level Jacksonville Center
06:11PM 30.0428 -82.1031 178° South 444 511 28,500 1,320 Climbing Jacksonville Center
06:12PM 29.9236 -82.0825 171° South 463 533 30,700 1,920 Climbing Jacksonville Center
06:13PM 29.7897 -82.0500 168° South 476 548 32,400 1,140 Climbing Jacksonville Center
06:14PM 29.6558 -82.0156 167° South 489 563 33,000 300 Climbing Jacksonville Center
06:15PM 29.5181 -81.9786 167° South 501 577 33,000  Level Jacksonville Center
06:16PM 29.3861 -81.9489 169° South 501 577 33,000  Level Jacksonville Center
06:17PM 29.2547 -81.9453 179° South 489 563 33,000  Level Jacksonville Center
06:18PM 29.1061 -81.9158 170° South 489 563 33,000 -60 Level Jacksonville Center
06:19PM 28.9683 -81.8886 170° South 489 563 32,900 -1,380 Descending Jacksonville Center
06:21PM 28.6714 -81.8314 170° South 497 572 28,500 -1,800 Descending Miami Center
06:22PM 28.5492 -81.8072 170° South 477 549 27,000 -780 Descending Miami Center
06:23PM 28.4231 -81.7733 167° South 465 535 27,000 -480 Level Miami Center
06:24PM 28.2992 -81.7372 166° South 465 535 26,100 -1,080 Descending Miami Center
06:25PM 28.1794 -81.7014 165° South 459 528 24,900 -1,320 Descending Miami Center
06:26PM 28.0569 -81.6797 171° South 453 521 23,500 -1,500 Descending Miami Center
06:27PM 27.9478 -81.6986 189° South 424 488 21,900 -1,560 Descending Miami Center
06:28PM 27.8383 -81.7292 194° South 411 473 20,400 -1,560 Descending Miami Center
06:29PM 27.7247 -81.7594 193° South 397 457 18,800 -1,500 Descending Miami Center
06:30PM 27.6158 -81.7642 182° South 390 449 17,500 -1,500 Descending Miami Center
06:31PM 27.5128 -81.7292 163° South 390 449 15,900 -1,560 Descending Miami Center
06:32PM 27.4142 -81.6806 156° South 390 449 14,400 -1,500 Descending Miami Center
06:33PM 27.3156 -81.6322 156° South 390 449 12,900 -1,500 Descending Miami Center
06:34PM 27.2169 -81.5836 156° South 390 449 11,400 -1,500 Descending Miami Center
06:35PM 27.1244 -81.5403 157° South 384 442 10,000 -720 Descending Miami Center
06:36PM 27.0319 -81.4944 156° South 372 428 10,000  Level Miami Center
06:37PM 26.9372 -81.4583 161° South 366 421 10,000  Level Miami Center
06:38PM 26.8408 -81.4706 186° South 347 399 10,000 -480 Level Miami Center
06:39PM 26.7419 -81.4922 191° South 353 406 9,100 -1,080 Descending Miami Center
06:40PM 26.6764 -81.5153 197° South 317 365 7,900 -1,320 Descending Miami Center
06:41PM 26.6025 -81.5403 197° South 290 334 6,500 -1,500 Descending Miami Center
06:42PM 26.5225 -81.5603 193° South 279 321 4,900 -1,620 Descending Miami Center
06:44PM 26.3569 -81.5831 187° South  Level FlightAware Approximate
06:51PM 26.1500 -81.7667 246° West  Level FlightAware Approximate
06:52PM 26.1524 -81.7756 246° West  Level Estimated
06:53PM 26.1524 -81.7756 246° West  Level Estimated
06:54PM 26.1524 -81.7756 246° West  Level Estimated
06:55PM 26.1524 -81.7756 246° West  Level Estimated
06:56PM 26.1524 -81.7756 246° West  Level Estimated
06:57PM 26.1524 -81.7756 246° West  Level Estimated
06:58PM 26.1524 -81.7756 246° West  Level Estimated
06:59PM 26.1524 -81.7756 246° West  Level Estimated